Temperature
15 15 15 16 16 16 16 16 17 17 17 18 18 18 18 18 18 18 18 18 18 18 18 18 18 18 18 18 18 18 18 18 18 18 18 18 18 18 18 18 18 18 17
15 15 15 15 15 16 16 16 16 17 17 17 17 18 18 18 18 18 18 18 18 18 18 18 18 18 18 18 18 18 18 18 18 18 18 18 18 18 18 18 18 17 17
15 15 15 15 15 15 16 16 16 16 16 17 17 17 17 17 18 18 18 18 18 18 18 18 18 18 18 18 18 18 18 18 18 18 18 18 18 18 18 18 17 17 17
14 15 15 15 15 15 15 15 16 16 16 16 17 17 17 17 17 18 18 18 18 18 18 18 18 18 18 18 18 18 18 18 18 18 18 18 18 18 18 18 17 17 17
14 14 14 14 15 15 15 15 15 16 16 16 16 17 17 17 17 17 17 17 17 18 18 18 18 18 18 18 18 18 18 18 18 18 18 18 18 18 18 17 17 17 17
14 14 14 14 14 14 15 15 15 15 15 16 16 16 17 17 17 17 17 17 17 18 18 18 18 18 18 18 18 18 18 18 18 18 18 18 17 17 17 17 17 17 17
13 14 14 14 14 14 14 14 15 15 15 15 16 16 16 17 17 17 17 17 17 17 18 18 18 18 18 18 18 18 18 18 18 18 18 18 17 17 17 17 17 17 17
13 13 13 13 14 14 14 14 14 15 15 15 15 15 16 16 17 17 17 17 17 17 17 18 18 18 18 18 18 18 18 18 18 18 18 17 17 17 17 17 17 17 17
13 13 13 13 13 13 13 14 14 14 14 14 14 14 15 16 16 17 17 17 17 17 17 17 18 18 18 18 18 18 18 18 18 18 18 17 17 17 17 17 17 17 17
12 12 13 13 13 13 13 13 13 13 14 14 14 14 14 15 15 16 17 17 17 17 17 17 17 18 18 18 18 18 18 18 18 18 18 17 17 17 17 17 17 17 17
12 12 12 12 13 13 13 13 13 13 13 14 14 14 14 14 14 15 15 16 17 17 17 17 17 17 18 18 18 18 18 18 18 17 17 17 17 17 17 17 17 17 16
12 12 12 12 12 12 12 13 13 13 13 13 13 13 14 14 14 14 15 15 16 17 17 17 17 17 17 17 18 18 18 18 18 18 17 17 17 17 17 17 17 17 16
12 12 12 12 12 12 12 12 12 13 13 13 13 13 13 13 14 14 14 14 15 15 16 17 17 17 17 17 17 17 17 18 18 18 17 17 17 17 17 17 17 17 16
12 12 12 12 12 12 12 12 12 12 12 12 13 13 13 13 13 13 14 14 14 14 15 16 16 17 17 17 17 17 17 17 17 17 17 17 17 17 17 17 17 17 16
12 12 12 11 12 12 12 12 12 12 12 12 12 13 13 13 13 13 13 13 13 13 14 15 16 16 16 16 16 17 17 17 17 17 17 17 17 17 17 16 16 16 16
12 12 11 11 11 11 11 11 12 12 12 12 12 12 13 13 13 13 13 13 13 13 13 14 15 16 16 16 16 16 16 17 17 17 17 17 17 17 17 16 16 16 16
12 11 11 11 11 11 11 11 11 11 11 12 12 12 12 13 13 13 13 13 13 13 13 14 15 15 15 15 16 16 16 16 16 16 17 17 17 17 16 16 16 16 16
11 11 11 11 11 11 11 11 11 11 11 11 12 12 12 12 12 13 13 13 13 13 13 13 14 15 15 15 15 15 16 16 16 16 16 16 16 16 16 16 16 16 16
11 11 11 11 11 11 11 11 11 11 11 11 11 12 12 12 12 12 12 12 13 13 13 13 14 14 14 15 15 15 15 15 16 16 16 16 16 16 16 16 16 16 16
12 12 11 11 11 11 11 11 11 11 11 11 11 11 12 12 12 12 12 12 12 12 13 13 13 13 14 14 14 14 15 15 15 15 15 16 16 16 16 16 16 16 16
12 12 12 11 11 11 11 11 11 11 11 11 11 11 11 11 11 12 12 12 12 12 12 12 13 13 13 14 14 14 14 14 15 15 15 15 15 15 15 15 15 15 15
12 12 12 12 12 11 11 11 11 11 11 11 11 11 11 11 11 11 12 12 12 12 12 12 12 12 13 13 14 14 14 14 14 15 15 15 15 15 15 15 15 15 15
13 13 12 12 12 12 11 11 11 11 11 11 11 11 11 11 11 11 12 12 12 12 12 12 12 12 13 13 13 13 13 13 14 14 14 14 15 15 15 15 15 15 15
13 13 13 12 12 12 12 12 11 11 11 11 11 11 11 11 11 11 12 12 12 12 12 12 12 12 12 13 13 13 13 13 13 13 13 14 14 14 15 15 15 15 15
14 13 13 13 13 12 12 12 12 12 12 12 11 11 11 11 11 11 11 12 12 12 12 12 12 12 12 12 12 12 13 12 13 13 13 13 14 14 14 14 14 14 14
14 14 14 13 13 13 12 12 12 12 12 12 12 11 11 11 11 11 11 11 12 12 12 12 12 12 12 12 12 12 12 12 12 12 13 13 13 13 13 14 14 14 14
Wind_Speed
2 2 2 3 4 4 3 3 3 3 3 3 3 3 3 4 6 7 9 15 17 16 16 15 14 13 11 10 10 11 12 12 13 13 12 13 13 13 13 13 12 12 11
2 2 3 2 2 3 4 3 4 4 4 3 3 3 3 3 4 7 9 12 17 17 17 16 15 14 13 12 11 11 12 12 13 13 13 14 14 14 14 13 13 12 12
3 2 2 2 3 3 4 3 3 3 3 3 3 2 2 2 2 4 7 9 12 16 17 17 16 15 15 14 13 12 12 13 14 13 14 15 15 14 14 14 13 12 12
6 3 2 2 3 2 1 2 3 3 3 3 3 2 1 1 1 2 4 7 8 10 14 17 17 16 16 15 15 14 14 14 14 15 15 15 15 15 14 14 13 12 11
8 4 3 3 3 1 1 2 1 2 2 3 3 2 2 2 2 2 2 5 7 9 10 15 18 18 17 16 16 16 15 15 15 15 16 16 16 16 15 14 13 12 12
8 5 3 4 3 2 2 2 1 1 2 2 3 2 2 2 2 3 4 3 5 9 11 11 13 16 18 18 17 17 17 17 17 17 17 17 17 16 15 15 14 13 13
7 4 4 4 4 3 2 2 1 1 1 0 0 2 2 3 4 4 4 4 5 7 9 11 12 12 14 18 19 18 18 18 18 18 18 18 17 17 16 16 15 14 14
5 4 4 4 4 3 4 3 2 1 1 1 1 1 2 3 2 4 4 5 6 4 6 10 11 12 13 13 17 20 20 19 19 19 19 19 18 18 18 17 16 15 15
4 4 3 3 4 3 3 3 2 1 1 1 1 2 1 2 2 2 3 4 4 4 5 5 9 12 14 14 15 19 21 21 21 21 20 20 20 19 19 18 17 16 16
5 4 3 3 3 3 3 3 2 1 0 1 1 1 2 2 1 2 2 2 4 5 6 6 7 9 14 14 16 18 22 22 22 22 22 21 21 21 20 19 18 17 17
5 4 3 3 3 3 3 3 3 2 0 1 1 1 1 1 2 2 3 3 2 3 4 6 6 6 12 14 15 18 22 24 24 24 23 23 23 22 22 21 20 19 18
4 5 4 4 4 3 3 3 3 2 2 1 1 2 2 2 2 2 3 3 3 3 3 4 6 7 9 12 17 20 23 25 26 26 25 24 24 24 23 22 21 20 19
3 5 4 4 4 4 4 3 2 3 2 2 2 2 3 4 3 3 3 3 3 3 2 3 5 6 8 11 14 19 22 25 26 26 26 25 25 25 24 24 23 22 21
3 4 5 5 4 4 4 3 2 3 2 3 3 3 3 4 4 4 4 3 3 3 3 4 3 5 6 9 14 18 17 23 25 26 26 26 25 25 25 24 24 23 23
3 4 4 4 5 4 4 3 2 3 3 3 3 3 3 3 3 4 4 4 4 4 4 4 4 4 4 7 12 14 14 20 24 26 26 26 26 25 25 25 24 24 23
3 4 4 4 4 4 4 3 3 3 4 4 3 4 4 3 4 3 4 4 5 5 5 4 4 4 3 5 10 12 15 19 23 25 26 26 26 26 26 25 24 24 23
3 3 4 4 4 4 4 4 4 4 4 5 5 4 5 4 3 3 3 3 4 5 7 5 4 4 4 5 5 7 10 11 14 23 25 25 25 26 26 25 25 24 24
2 3 3 3 4 4 4 4 4 5 5 5 6 5 6 4 4 3 3 4 4 5 5 6 4 3 5 5 5 6 6 9 10 17 23 24 25 25 25 26 26 25 25
2 3 2 3 3 3 4 3 3 5 5 6 6 5 6 5 5 4 3 3 3 4 4 4 4 3 3 3 3 4 5 5 7 12 18 22 24 25 25 26 26 26 26
1 2 2 3 3 3 3 3 4 5 6 6 6 6 6 5 5 5 4 4 3 3 3 3 4 4 3 3 3 4 4 5 6 6 10 14 19 23 25 25 26 27 27
2 3 3 4 4 4 3 3 4 5 6 7 7 6 6 7 6 4 4 4 3 3 3 3 4 3 4 3 4 3 5 4 5 5 6 7 8 10 14 21 24 26 27
3 3 4 4 5 5 6 7 5 4 5 6 7 7 7 6 7 7 7 5 4 4 4 4 4 5 6 5 4 4 4 4 4 4 6 7 7 9 9 12 20 25 27
4 4 5 5 6 8 10 9 7 3 4 5 5 5 5 6 6 5 6 6 5 6 6 5 6 7 6 6 5 5 5 5 5 4 5 6 6 9 8 12 20 24 26
5 5 6 6 6 8 10 9 7 3 3 5 5 4 4 5 6 6 4 4 4 4 5 4 5 6 6 6 6 6 5 5 3 3 5 5 5 6 6 8 18 23 26
5 5 6 6 6 8 10 9 6 2 3 5 5 5 4 5 8 8 4 4 5 5 5 5 6 7 8 8 6 4 4 5 5 4 5 5 4 4 5 7 10 20 24
6 6 7 6 7 8 10 10 6 2 3 4 5 5 7 7 8 8 3 4 5 6 5 6 6 6 5 6 7 6 6 5 3 4 5 5 4 4 3 4 6 10 15
Wind_Direction
275 262 259 249 242 233 222 222 224 231 228 223 238 241 249 245 232 224 222 211 201 193 187 184 183 180 179 178 177 174 173 173 168 164 160 157 154 153 150 147 146 144 141
321 300 279 260 253 246 234 223 221 226 229 223 237 235 245 263 238 223 216 210 203 197 191 189 188 186 185 184 181 177 176 176 172 170 167 163 160 158 155 153 152 151 149
5 339 320 294 270 260 245 234 230 223 231 231 233 240 229 248 247 221 214 206 204 203 197 194 192 191 191 188 185 181 181 178 176 177 173 168 166 164 162 160 160 157 154
11 5 358 326 310 297 266 240 232 230 231 235 236 238 230 240 277 226 216 216 205 204 205 202 198 196 197 194 189 186 185 183 181 182 177 173 171 170 168 166 166 164 162
12 19 4 340 347 345 325 293 255 235 232 241 245 238 219 216 242 250 221 223 216 210 206 209 205 202 202 200 196 192 189 188 186 184 182 178 177 176 174 173 173 172 170
9 15 10 0 4 8 352 324 285 258 237 242 260 263 242 232 224 226 226 218 222 220 213 210 209 209 207 204 202 199 195 193 191 190 188 186 184 183 182 181 180 180 178
5 12 13 4 9 7 345 335 309 298 286 234 44 309 286 246 232 226 221 215 218 223 214 209 207 206 209 210 207 204 201 198 196 195 194 193 190 190 189 188 188 188 186
1 13 15 2 360 2 2 3 7 351 318 89 113 43 327 327 278 234 220 221 216 211 211 211 206 207 206 204 210 208 206 203 201 200 199 197 195 194 194 194 194 194 192
1 5 7 7 3 11 358 352 360 55 300 281 170 160 177 248 288 287 230 230 219 215 216 205 208 210 210 207 207 212 210 207 206 205 203 201 199 199 199 199 199 199 197
353 359 8 8 8 6 354 340 8 10 115 283 289 227 213 205 220 305 306 248 225 223 220 217 212 211 213 211 211 210 210 209 209 209 208 206 204 203 203 203 203 203 201
344 348 352 357 357 347 336 337 344 342 278 220 225 244 259 249 211 214 276 301 284 240 226 220 215 213 213 211 213 214 211 210 210 212 211 210 208 206 206 206 205 205 203
335 337 338 342 335 329 322 324 324 323 303 274 245 216 207 223 225 211 240 268 276 267 243 224 218 219 214 212 217 216 212 211 211 212 213 213 211 209 209 208 207 207 206
322 318 330 328 325 319 316 324 333 324 311 301 270 247 231 226 216 208 222 247 259 279 271 246 224 215 216 213 219 217 215 213 212 213 214 214 212 211 211 210 209 209 208
286 301 323 329 330 331 338 346 349 329 325 309 295 276 258 250 227 210 205 210 251 272 264 256 252 225 220 215 219 215 216 215 214 214 215 214 212 212 211 211 211 210 210
302 323 333 336 338 347 356 360 343 331 333 318 301 287 270 259 245 231 217 203 208 242 258 249 243 241 225 221 222 216 215 215 215 216 216 214 212 212 211 211 212 211 210
319 330 336 337 341 349 354 354 336 331 341 327 308 303 290 274 267 244 226 220 213 219 245 247 238 254 246 239 229 220 221 219 216 216 216 215 213 212 211 210 210 209 208
322 333 333 339 344 347 349 356 346 347 344 331 327 315 300 290 276 263 244 229 222 216 243 259 243 247 241 244 237 227 226 222 219 217 216 215 213 212 211 210 209 208 206
332 339 345 351 347 346 347 352 344 344 336 326 320 317 309 308 292 275 257 243 233 222 226 253 258 243 239 238 232 229 228 224 220 218 216 216 214 213 212 211 208 206 204
341 350 0 353 340 330 328 324 321 322 319 313 308 306 302 302 294 287 271 254 246 242 226 238 256 247 247 241 237 237 229 225 222 223 219 218 216 214 213 212 208 205 202
299 315 317 312 305 304 307 303 313 316 315 312 305 298 295 287 276 274 271 261 252 250 243 244 254 255 251 245 223 231 236 223 224 219 219 218 218 217 215 212 209 206 202
265 274 287 299 300 290 279 280 297 306 312 316 316 309 303 303 296 281 274 256 247 247 246 243 253 256 251 238 229 220 231 230 225 208 209 213 211 216 216 216 213 209 204
271 277 277 282 290 288 295 291 292 295 304 310 314 316 313 318 327 328 314 287 253 241 241 238 245 248 251 241 235 230 225 223 233 206 201 218 207 216 214 213 213 209 205
254 269 272 275 277 281 287 293 298 297 299 306 310 316 326 334 338 328 323 317 296 280 252 237 244 247 247 237 227 234 229 225 228 204 193 224 211 221 215 213 209 206 204
245 255 263 269 273 279 282 285 292 298 299 304 306 306 308 316 323 326 323 325 314 298 279 261 246 251 251 247 230 230 231 237 249 222 191 216 209 218 211 209 208 204 201
246 249 256 262 267 277 280 277 276 276 293 302 307 309 310 306 316 330 328 318 315 308 302 292 275 266 264 258 240 227 225 227 238 225 199 207 206 209 213 215 208 203 201
242 253 262 260 258 266 274 271 258 231 277 295 305 309 313 311 314 325 309 294 297 296 303 310 304 299 284 275 253 227 221 226 228 228 202 196 194 185 216 219 208 203 204
Height
1510 1509 1509 1509 1509 1510 1511 1512 1513 1514 1516 1517 1519 1520 1521 1522 1523 1525 1526 1528 1529 1531 1532 1533 1534 1535 1536 1537 1538 1539 1541 1542 1544 1546 1547 1549 1550 1551 1553 1554 1555 1556 1557
1507 1507 1506 1506 1506 1507 1508 1509 1510 1511 1513 1514 1516 1517 1519 1520 1521 1522 1524 1526 1528 1529 1530 1531 1533 1534 1535 1536 1537 1539 1540 1542 1544 1545 1547 1548 1550 1551 1553 1554 1555 1556 1558
1505 1505 1504 1504 1504 1505 1505 1506 1507 1508 1509 1511 1512 1514 1516 1517 1518 1520 1522 1524 1526 1527 1529 1530 1531 1532 1533 1535 1536 1538 1539 1541 1543 1545 1546 1548 1550 1551 1552 1554 1555 1557 1558
1504 1503 1502 1502 1502 1503 1503 1504 1504 1505 1506 1507 1509 1511 1513 1514 1516 1517 1519 1521 1523 1525 1527 1528 1530 1531 1532 1533 1535 1536 1538 1540 1542 1544 1546 1547 1549 1550 1552 1553 1555 1556 1557
1502 1501 1500 1500 1500 1500 1501 1501 1502 1502 1503 1504 1505 1507 1509 1511 1513 1514 1516 1518 1520 1523 1525 1527 1528 1529 1531 1532 1533 1535 1537 1538 1540 1542 1544 1546 1548 1549 1551 1553 1554 1556 1557
1501 1500 1499 1499 1498 1498 1498 1499 1499 1500 1501 1502 1503 1504 1506 1508 1509 1511 1513 1515 1517 1520 1522 1524 1526 1527 1529 1530 1531 1533 1535 1536 1538 1540 1542 1544 1546 1548 1550 1551 1553 1554 1556
1500 1499 1498 1497 1497 1497 1496 1496 1497 1497 1498 1499 1500 1501 1503 1504 1506 1508 1510 1512 1514 1517 1519 1521 1523 1525 1526 1528 1529 1531 1533 1534 1536 1538 1540 1542 1544 1546 1548 1550 1551 1553 1555
1500 1498 1497 1496 1495 1495 1495 1495 1495 1495 1496 1497 1498 1499 1500 1502 1502 1504 1506 1508 1511 1513 1515 1518 1520 1521 1523 1525 1527 1528 1530 1532 1534 1536 1538 1540 1542 1544 1546 1548 1550 1551 1553
1499 1498 1497 1495 1494 1494 1493 1493 1493 1493 1494 1495 1496 1498 1499 1499 1500 1501 1502 1504 1507 1509 1511 1513 1515 1518 1520 1522 1524 1526 1527 1529 1531 1533 1535 1537 1539 1541 1543 1545 1547 1549 1551
1499 1498 1496 1495 1494 1493 1492 1492 1492 1492 1492 1493 1494 1496 1497 1498 1499 1498 1500 1501 1503 1505 1507 1509 1511 1513 1516 1518 1520 1522 1524 1526 1528 1530 1532 1534 1536 1538 1540 1543 1545 1546 1548
1499 1497 1496 1494 1493 1492 1491 1491 1491 1491 1491 1491 1492 1493 1494 1495 1496 1497 1497 1498 1499 1501 1502 1505 1507 1509 1511 1513 1516 1518 1521 1522 1524 1526 1528 1530 1533 1535 1537 1539 1541 1543 1545
1499 1497 1495 1494 1493 1491 1490 1490 1489 1489 1489 1489 1490 1490 1491 1492 1493 1494 1495 1494 1495 1497 1498 1500 1502 1504 1507 1509 1511 1514 1516 1518 1520 1522 1524 1526 1529 1531 1533 1536 1538 1540 1542
1498 1497 1495 1493 1492 1490 1489 1488 1488 1487 1487 1487 1487 1488 1488 1489 1490 1491 1492 1492 1492 1492 1494 1496 1497 1500 1502 1504 1506 1509 1511 1514 1516 1518 1520 1522 1525 1527 1529 1532 1534 1536 1538
1498 1496 1494 1493 1491 1490 1488 1487 1486 1486 1485 1485 1485 1485 1485 1486 1486 1487 1488 1489 1488 1488 1489 1490 1492 1494 1496 1498 1500 1503 1505 1508 1511 1513 1515 1518 1520 1523 1525 1527 1530 1532 1534
1498 1496 1494 1492 1490 1489 1487 1486 1485 1484 1483 1483 1482 1482 1482 1482 1483 1483 1484 1485 1486 1485 1484 1485 1487 1489 1491 1493 1495 1497 1499 1502 1505 1507 1510 1513 1515 1518 1520 1523 1525 1528 1530
1497 1495 1493 1491 1489 1488 1486 1485 1483 1482 1481 1480 1479 1479 1479 1479 1479 1479 1480 1480 1481 1482 1481 1481 1483 1484 1486 1488 1489 1491 1493 1496 1498 1501 1505 1507 1510 1513 1515 1518 1520 1523 1525
1496 1494 1492 1490 1488 1487 1485 1483 1482 1480 1479 1478 1477 1476 1476 1476 1476 1476 1476 1476 1476 1477 1476 1476 1478 1479 1481 1482 1484 1485 1487 1489 1492 1495 1498 1501 1504 1507 1510 1512 1515 1517 1520
1494 1492 1491 1489 1487 1485 1483 1481 1480 1478 1477 1476 1474 1473 1473 1472 1472 1472 1472 1472 1472 1472 1472 1472 1473 1474 1475 1477 1478 1479 1481 1483 1486 1489 1492 1495 1498 1501 1504 1506 1509 1512 1515
1493 1491 1490 1488 1486 1484 1482 1480 1478 1477 1475 1473 1472 1470 1469 1469 1468 1468 1468 1468 1468 1468 1468 1468 1468 1469 1470 1471 1473 1474 1475 1477 1479 1482 1485 1488 1491 1494 1497 1500 1503 1506 1509
1492 1490 1488 1487 1485 1482 1480 1478 1477 1475 1473 1471 1470 1468 1467 1466 1465 1465 1464 1464 1464 1464 1464 1464 1464 1465 1465 1466 1467 1468 1470 1471 1473 1476 1478 1481 1484 1487 1490 1493 1496 1499 1502
1492 1490 1488 1486 1484 1482 1479 1477 1475 1473 1471 1469 1468 1466 1465 1463 1462 1461 1461 1461 1460 1460 1460 1460 1460 1460 1461 1461 1462 1463 1464 1466 1468 1470 1472 1474 1477 1479 1482 1485 1488 1492 1495
1491 1489 1487 1485 1483 1481 1478 1476 1474 1472 1470 1468 1466 1464 1463 1461 1460 1459 1458 1457 1457 1457 1456 1456 1456 1456 1456 1457 1458 1459 1460 1461 1462 1464 1466 1467 1470 1471 1474 1477 1480 1484 1488
1490 1488 1486 1484 1482 1480 1477 1475 1473 1471 1469 1466 1464 1462 1461 1459 1458 1456 1455 1455 1454 1454 1453 1453 1451 1451 1452 1453 1453 1454 1454 1455 1456 1459 1461 1461 1463 1464 1467 1469 1473 1476 1479
1488 1486 1484 1482 1480 1478 1476 1474 1472 1470 1467 1465 1463 1461 1459 1457 1456 1454 1453 1452 1451 1450 1450 1449 1448 1447 1448 1448 1448 1449 1449 1450 1451 1453 1455 1455 1456 1458 1460 1462 1465 1469 1472
1487 1485 1483 1481 1479 1477 1475 1473 1470 1468 1466 1464 1462 1460 1457 1456 1454 1452 1451 1449 1448 1448 1447 1446 1445 1444 1443 1444 1444 1444 1444 1445 1445 1447 1449 1450 1450 1452 1454 1455 1458 1461 1464
1484 1483 1481 1479 1477 1475 1473 1471 1469 1466 1464 1462 1460 1458 1456 1454 1452 1450 1449 1447 1446 1445 1444 1443 1442 1441 1440 1440 1440 1440 1440 1440 1440 1441 1442 1444 1445 1447 1448 1449 1451 1454 1457